Total_Precipitation_Accumulation
1.77 1.99 1.61 0.94 0.75 0.67 0.55 0.49 0.41 0.41 0.40 0.48 0.47 0.52 0.55 0.54 0.54 0.62 0.74 0.80 0.83 0.84 0.91 1.19 1.57 1.80 2.12 2.51 2.69 2.74 2.70 2.88 3.10 2.97 2.72 2.50 2.26 2.05 1.84 1.69 1.54 1.42 1.31 1.21
1.70 1.44 0.89 0.66 0.70 0.73 0.68 0.62 0.49 0.46 0.43 0.50 0.48 0.51 0.50 0.53 0.55 0.59 0.67 0.73 0.73 0.69 0.80 1.06 1.37 1.67 1.85 2.33 2.63 2.67 2.77 2.93 3.10 2.98 2.83 2.73 2.63 2.42 2.20 2.03 1.75 1.53 1.40 1.29
1.26 0.89 0.72 0.87 0.91 0.85 0.76 0.65 0.52 0.52 0.57 0.53 0.49 0.54 0.44 0.45 0.49 0.51 0.63 0.70 0.67 0.64 0.72 0.91 1.14 1.43 1.56 1.86 2.25 2.44 2.52 2.74 2.88 3.06 3.32 3.28 3.12 2.74 2.31 2.02 1.88 1.71 1.64 1.52
1.06 0.74 0.85 1.08 1.04 0.83 0.76 0.52 0.53 0.54 0.68 0.69 0.53 0.69 0.47 0.41 0.46 0.48 0.59 0.67 0.68 0.65 0.69 0.84 1.02 1.15 1.32 1.50 1.82 2.19 2.42 2.57 2.61 2.71 3.00 3.13 2.96 2.58 2.21 2.00 1.98 2.00 1.89 1.82
1.03 0.75 0.91 1.15 0.95 0.78 0.68 0.49 0.58 0.64 0.72 0.72 0.50 0.60 0.51 0.42 0.49 0.52 0.59 0.67 0.69 0.70 0.76 0.85 0.92 0.95 1.06 1.27 1.59 1.91 2.17 2.41 2.45 2.39 2.52 2.78 2.88 2.76 2.55 2.35 2.22 2.11 2.01 1.87
0.76 0.75 0.95 1.01 0.85 0.83 0.75 0.78 0.90 0.98 1.18 1.12 0.49 0.50 0.48 0.47 0.56 0.56 0.56 0.66 0.73 0.79 0.83 0.84 0.87 0.88 0.94 1.08 1.30 1.58 1.83 2.16 2.34 2.29 2.33 2.43 2.51 2.61 2.55 2.36 2.30 2.21 2.15 2.00
1.02 0.99 0.93 0.99 1.21 1.17 1.17 1.56 1.94 1.88 1.66 0.96 0.30 0.34 0.49 0.44 0.49 0.52 0.56 0.64 0.69 0.71 0.73 0.71 0.71 0.75 0.86 0.98 1.09 1.29 1.41 1.68 1.98 2.10 2.13 2.16 2.26 2.32 2.39 2.40 2.34 2.30 2.15 1.99
1.13 1.19 0.90 0.97 1.29 1.34 1.18 1.39 1.52 1.31 0.86 0.45 0.25 0.38 0.47 0.39 0.41 0.46 0.50 0.58 0.68 0.74 0.73 0.71 0.68 0.74 0.87 0.92 0.99 1.11 1.22 1.34 1.59 1.79 1.84 1.86 2.00 2.08 2.06 2.16 2.16 2.14 2.07 1.97
0.85 0.92 0.72 0.76 0.91 1.04 1.13 1.04 0.82 1.02 0.73 0.51 0.36 0.32 0.36 0.34 0.38 0.42 0.44 0.49 0.61 0.67 0.65 0.68 0.71 0.77 0.83 0.87 0.91 0.99 1.07 1.10 1.23 1.45 1.58 1.67 1.71 1.73 1.68 1.69 1.72 1.77 1.82 1.84
0.76 0.89 0.77 0.80 1.01 1.05 0.99 0.86 0.92 1.22 1.02 0.73 0.39 0.30 0.44 0.43 0.43 0.43 0.43 0.46 0.54 0.62 0.65 0.67 0.70 0.69 0.71 0.77 0.81 0.88 0.91 0.91 0.97 1.10 1.20 1.37 1.46 1.45 1.49 1.48 1.44 1.42 1.42 1.47
0.65 0.88 0.97 0.95 1.06 0.87 0.77 0.88 0.97 0.98 0.80 0.83 0.56 0.41 0.41 0.42 0.44 0.45 0.50 0.50 0.56 0.59 0.67 0.71 0.73 0.71 0.69 0.74 0.78 0.80 0.76 0.78 0.82 0.90 0.96 1.03 1.15 1.21 1.26 1.28 1.20 1.20 1.16 1.14
0.51 0.74 0.93 0.76 0.57 0.52 0.58 0.60 0.75 1.02 0.78 0.64 0.60 0.40 0.28 0.33 0.37 0.43 0.51 0.51 0.52 0.55 0.59 0.63 0.70 0.69 0.69 0.72 0.76 0.79 0.73 0.71 0.74 0.79 0.80 0.84 0.92 1.05 1.09 1.13 1.07 1.02 1.02 0.96
0.56 0.72 0.91 0.79 0.67 0.62 0.60 0.46 0.56 0.81 0.99 0.74 0.67 0.42 0.26 0.29 0.34 0.40 0.48 0.49 0.49 0.49 0.52 0.54 0.56 0.61 0.65 0.68 0.70 0.77 0.75 0.68 0.67 0.68 0.68 0.72 0.79 0.88 0.93 0.95 0.97 0.91 0.94 0.88
0.70 0.66 0.73 0.74 0.59 0.57 0.53 0.43 0.53 0.95 1.16 0.66 0.43 0.36 0.29 0.31 0.34 0.37 0.41 0.43 0.43 0.43 0.40 0.41 0.45 0.50 0.54 0.59 0.64 0.68 0.71 0.70 0.70 0.68 0.63 0.65 0.70 0.81 0.86 0.82 0.85 0.84 0.89 0.91
0.59 0.65 0.48 0.41 0.30 0.34 0.40 0.43 0.52 0.72 0.64 0.61 0.35 0.30 0.31 0.31 0.34 0.36 0.34 0.33 0.31 0.30 0.30 0.32 0.33 0.36 0.41 0.45 0.50 0.55 0.60 0.63 0.68 0.69 0.66 0.65 0.64 0.73 0.79 0.72 0.73 0.75 0.78 0.89
0.38 0.52 0.44 0.38 0.25 0.28 0.38 0.39 0.41 0.46 0.47 0.47 0.35 0.32 0.26 0.27 0.29 0.29 0.25 0.23 0.21 0.20 0.21 0.22 0.22 0.24 0.26 0.30 0.36 0.41 0.47 0.53 0.61 0.63 0.65 0.64 0.62 0.65 0.75 0.73 0.71 0.72 0.76 0.85
0.29 0.39 0.53 0.42 0.24 0.31 0.42 0.34 0.38 0.42 0.42 0.43 0.48 0.39 0.26 0.25 0.25 0.23 0.22 0.19 0.17 0.15 0.15 0.15 0.15 0.16 0.17 0.20 0.25 0.30 0.35 0.40 0.47 0.55 0.59 0.62 0.65 0.68 0.74 0.76 0.76 0.81 0.88 0.94
0.24 0.36 0.60 0.46 0.29 0.36 0.29 0.18 0.24 0.33 0.33 0.30 0.33 0.28 0.24 0.22 0.21 0.21 0.20 0.17 0.14 0.13 0.14 0.16 0.16 0.16 0.16 0.17 0.17 0.20 0.25 0.33 0.37 0.42 0.50 0.54 0.59 0.63 0.66 0.73 0.79 0.84 0.90 0.96
0.15 0.39 0.68 0.54 0.34 0.22 0.18 0.17 0.23 0.33 0.37 0.27 0.25 0.20 0.20 0.18 0.16 0.18 0.17 0.16 0.15 0.13 0.13 0.14 0.14 0.14 0.15 0.15 0.15 0.17 0.22 0.29 0.34 0.41 0.47 0.52 0.60 0.64 0.67 0.75 0.78 0.82 0.89 0.92
0.17 0.33 0.67 0.57 0.46 0.27 0.19 0.12 0.13 0.26 0.44 0.24 0.19 0.18 0.18 0.17 0.23 0.20 0.15 0.14 0.15 0.13 0.12 0.13 0.14 0.15 0.17 0.18 0.20 0.22 0.26 0.31 0.35 0.41 0.49 0.51 0.59 0.69 0.73 0.76 0.75 0.74 0.79 0.86
0.27 0.42 0.55 0.47 0.42 0.19 0.12 0.07 0.11 0.34 0.46 0.21 0.17 0.16 0.16 0.17 0.22 0.19 0.15 0.13 0.13 0.14 0.13 0.13 0.15 0.17 0.21 0.26 0.28 0.29 0.33 0.37 0.39 0.41 0.46 0.46 0.51 0.57 0.61 0.63 0.64 0.65 0.66 0.68
0.17 0.24 0.23 0.25 0.36 0.24 0.12 0.10 0.21 0.26 0.16 0.12 0.11 0.11 0.12 0.15 0.16 0.16 0.15 0.13 0.13 0.17 0.16 0.16 0.18 0.19 0.21 0.27 0.34 0.35 0.34 0.35 0.36 0.36 0.40 0.41 0.44 0.48 0.50 0.52 0.55 0.57 0.56 0.56
0.14 0.19 0.22 0.21 0.23 0.18 0.14 0.15 0.16 0.13 0.10 0.09 0.09 0.10 0.10 0.13 0.15 0.15 0.15 0.13 0.11 0.15 0.16 0.15 0.16 0.17 0.18 0.22 0.28 0.35 0.35 0.34 0.33 0.35 0.38 0.38 0.37 0.38 0.42 0.43 0.46 0.47 0.45 0.45
0.13 0.10 0.15 0.18 0.14 0.12 0.12 0.13 0.12 0.12 0.12 0.09 0.08 0.07 0.07 0.10 0.13 0.14 0.14 0.13 0.12 0.12 0.14 0.14 0.14 0.16 0.18 0.19 0.21 0.25 0.28 0.29 0.30 0.31 0.32 0.35 0.36 0.34 0.33 0.35 0.38 0.41 0.43 0.43
0.12 0.12 0.14 0.18 0.14 0.13 0.13 0.12 0.10 0.09 0.08 0.06 0.05 0.05 0.07 0.10 0.12 0.13 0.15 0.16 0.14 0.14 0.14 0.15 0.15 0.16 0.17 0.17 0.18 0.18 0.19 0.21 0.25 0.28 0.28 0.29 0.30 0.32 0.31 0.30 0.33 0.38 0.39 0.45
0.12 0.14 0.19 0.21 0.14 0.15 0.14 0.10 0.08 0.07 0.06 0.06 0.05 0.05 0.06 0.08 0.09 0.09 0.09 0.12 0.15 0.15 0.14 0.15 0.15 0.15 0.16 0.16 0.17 0.17 0.17 0.19 0.22 0.24 0.26 0.27 0.27 0.28 0.29 0.29 0.29 0.33 0.36 0.41